• Processing (Info)

  • MPEC 2019-N134 : 2019 NO5

    The following Minor Planet Electronic Circular may be linked-to from your own Web pages, but must not otherwise be redistributed electronically.

    A form allowing access to any MPEC is at the bottom of this page.


    Read MPEC 2019-N133 Read MPEC 2019-N135


    M.P.E.C. 2019-N134                                Issued 2019 July 10, 13:13 UT  
    
         The Minor Planet Electronic Circulars contain information on unusual
             minor planets and routine data on comets.  They are published
        on behalf of Division F of the International Astronomical Union by the
              Minor Planet Center, Smithsonian Astrophysical Observatory,
                              Cambridge, MA 02138, U.S.A.
    
                 Prepared using the Tamkin Foundation Computer Network
    
                                  MPC@CFA.HARVARD.EDU
                URL https://www.minorplanetcenter.net/    ISSN 1523-6714
    
                                    2019 NO5                                 
    
    Observations:
         K19N05O* C2019 07 03.51965 21 20 39.961-35 38 32.09         21.4 wUEN134F51
         K19N05O  C2019 07 03.52932 21 20 39.962-35 38 20.35         21.0 wUEN134F51
         K19N05O  C2019 07 03.53898 21 20 39.976-35 38 08.31         20.9 wUEN134F51
         K19N05O |C2019 07 04.20728 21 20 48.55 -35 23 56.5          21.1 VuEN134807
         K19N05O |C2019 07 04.21285 21 20 48.55 -35 23 49.4          21.1 VuEN134807
         K19N05O |C2019 07 04.21857 21 20 48.54 -35 23 42.6          21.0 VuEN134807
         K19N05O ^C2019 07 04.54952021 20 50.530-35 17 08.75         21.03GVEN134568
         K19N05O ^C2019 07 04.55048121 20 50.527-35 17 07.56         21.04GVEN134568
         K19N05O ^C2019 07 04.55144721 20 50.524-35 17 06.33         21.00GVEN134568
         K19N05O KC2019 07 05.38468 21 20 56.59 -34 59 36.3          21.0 RoEN134291
         K19N05O KC2019 07 05.39644 21 20 56.56 -34 59 22.4          21.0 RoEN134291
         K19N05O KC2019 07 05.40939 21 20 56.44 -34 59 06.4          21.4 RoEN134291
         K19N05O KC2019 07 09.35527 21 20 45.35 -33 33 37.2                oEN134291
         K19N05O KC2019 07 09.36051 21 20 45.24 -33 33 30.3                oEN134291
         K19N05O  C2019 07 09.36222 21 20 45.16 -33 33 29.1          20.9 GVEN134I52
         K19N05O  C2019 07 09.36442 21 20 45.12 -33 33 25.5          21.4 GVEN134I52
         K19N05O KC2019 07 09.36578 21 20 45.13 -33 33 23.2                oEN134291
         K19N05O  C2019 07 09.37046 21 20 45.12 -33 33 18.0                VEN134I52
         K19N05O  C2019 07 10.37614 21 20 32.61 -33 10 53.8          21.3 GVEN134I52
         K19N05O  C2019 07 10.38238 21 20 32.50 -33 10 46.7                VEN134I52
         K19N05O  C2019 07 10.38675 21 20 32.37 -33 10 39.0          22.1 GVEN134I52
    
    Observer details:
    291 LPL/Spacewatch II.  Observer R. A. Mastaler.  1.8-m f/2.7 reflector + CCD.
    568 Mauna Kea.  Observers R. Wainscoat, C. Crowder, S. Prunet.  
        Measurers R. Weryk, R. Wainscoat.  
        3.6-m Canada-France-Hawaii Telescope + CCD.
    807 Cerro Tololo Observatory, La Serena.  Observers T. Linder, R. Holmes.  
        0.61-m f/6.5 astrograph + CCD.
    F51 Pan-STARRS 1, Haleakala.  Observers J. Bulger, T. Lowe, A. Schultz,
        M. Willman.  Measurers K. Chambers, S. Chastel, T. de Boer, L. Denneau,
        J. Fairlamb, H. Flewelling, M. Huber, C.-C. Lin, E. Magnier, Y. Ramanjooloo,
        R. Wainscoat, R. Weryk.  1.8-m Ritchey-Chretien + CCD.
    I52 Steward Observatory, Mt. Lemmon Station.  Observer T. A. Pruyne.  
        Measurers B. M. Africano, E. J. Christensen, G. A. Farneth, D. C. Fuls,
        A. R. Gibbs, A. D. Grauer, H. Groeller, R. A. Kowalski, S. M. Larson,
        G. J. Leonard, T. A. Pruyne, D. Rankin, R. L. Seaman, F. C. Shelly.  
        1.0-m reflector + CCD.
    
    Orbital elements:
    2019 NO5                                                 Earth MOID = 0.3091 AU
    Epoch 2019 Apr. 27.0 TT = JDT 2458600.5                 MPC
    M 345.00708              (2000.0)            P               Q
    n   0.31138155     Peri.  310.21834     +0.05459113     +0.99428964
    a   2.1557950      Node   322.60604     -0.86412509     +0.00103169
    e   0.3969911      Incl.    8.68427     -0.50030754     +0.10671013
    P   3.17           H   21.7           G   0.15           U   7
    Residuals in seconds of arc
    190703 F51  0.0   0.0     190704 568  0.0   0.3-    190709 I52  0.2-  0.1-
    190703 F51  0.1+  0.1+    190705 291  0.2-  0.7+    190709 291  0.0   0.3+
    190704 807  0.1-  0.4-    190705 291  0.3+  0.1-    190709 I52  1.4+  0.5-
    190704 807  0.1-  0.0     190705 291  0.1-  0.5-    190710 I52  0.4-  0.0
    190704 807  0.2-  0.1-    190709 291  0.1-  0.1+    190710 I52  0.2+  1.2-
    190704 568  0.0   0.3-    190709 291  0.1-  0.1+    190710 I52  0.1-  0.7+
    190704 568  0.0   0.4-    190709 I52  0.3-  0.8-
    
    Ephemeris:
    2019 NO5                 a,e,i = 2.16, 0.40, 9                   q = 1.3000
    Date    TT    R. A. (2000) Decl.     Delta      r    Elong.  Phase     V
    2019 06 10    20 53 44.3 -42 16 25   0.3891  1.3006   130.2    36.6    21.7
    ...
    2019 06 25    21 16 02.5 -38 23 24   0.3557  1.3040   138.4    31.2    21.4
    ...
    2019 07 03    21 20 32.4 -35 48 53   0.3449  1.3122   144.3    26.9    21.2
    ...
    2019 07 09    21 20 48.3 -33 41 07   0.3406  1.3211   149.3    23.1    21.1
    2019 07 10    21 20 37.4 -33 18 56   0.3403  1.3228   150.2    22.4    21.0
    2019 07 11    21 20 23.0 -32 56 31   0.3400  1.3246   151.1    21.8    21.0
    ...
    2019 07 17    21 17 51.8 -30 37 55   0.3409  1.3365   156.8    17.4    20.9
    ...
    2019 07 25    21 12 21.5 -27 26 17   0.3489  1.3557   164.8    11.3    20.8
    ...
    2019 08 09    21 00 21.2 -21 35 20   0.3886  1.4009   173.7     4.6    20.8
    
    A. U. Tomatic                (C) Copyright 2019 MPC           M.P.E.C. 2019-N134
    


    Read MPEC 2019-N133 Read MPEC 2019-N135


    MPEC number:

    Enter an MPEC number in one of the following forms:

    • 1997-B01 (the full form)
    • J97B01 (the packed version of the full form)
    • B01 (the abbreviated form)